This demonstration page uses our WeatherBlox Daily Observations layout. Learn more.

Left ArrowRight Arrow

31.84235, -102.49876

Hourly Observations for March 14, 2017

Temp ( °F °C ) Dew Point ( °F °C ) Humidity (%) Winds ( mph kmh ) Pressure ( in mb ) Visibility ( mi km ) Precip ( " mm )
12:53 am 00:53 Clear 51 10.6 42 5.6 71 71 SSE 3 6 30.16 1021 10 16 0.00 0.00
1:53 am 01:53 Clear 52 11.1 43 6.1 72 72 Calm 30.14 1021 10 16 0.00 0.00
2:53 am 02:53 Clear 49 9.4 42 5.6 77 77 S 3 6 30.13 1020 10 16 0.00 0.00
3:53 am 03:53 Clear 47 8.3 42 5.6 83 83 SSE 7 11 30.10 1019 10 16 0.00 0.00
4:53 am 04:53 Clear 47 8.3 41 5 80 80 SSE 7 11 30.09 1019 10 16 0.00 0.00
5:53 am 05:53 Clear 47 8.3 37 2.8 69 69 S 8 13 30.08 1019 10 16 0.00 0.00
6:53 am 06:53 Clear 47 8.3 36 2.2 66 66 SSE 9 15 30.09 1019 10 16 0.00 0.00
7:53 am 07:53 Clear 46 7.8 35 1.7 66 66 S 8 13 30.09 1019 10 16 0.00 0.00
8:53 am 08:53 Sunny 48 8.9 37 2.8 66 66 S 7 11 30.11 1020 10 16 0.00 0.00
9:53 am 09:53 Sunny 54 12.2 42 5.6 64 64 S 12 19 30.11 1020 10 16 0.00 0.00
10:53 am 10:53 Sunny 59 15 45 7.2 60 60 S 18 30 30.11 1020 10 16 0.00 0.00
11:53 am 11:53 Sunny 64 17.8 46 7.8 52 52 SSW 17 28 30.08 1019 10 16 0.00 0.00
12:53 pm 12:53 Sunny 68 20 47 8.3 47 47 SSW 10 17 30.07 1018 10 16 0.00 0.00
1:53 pm 13:53 Sunny 72 22.2 45 7.2 38 38 SSW 14 22 30.04 1017 10 16 0.00 0.00
2:53 pm 14:53 Sunny 77 25 40 4.4 26 26 W 12 19 30.00 1016 10 16 0.00 0.00
3:53 pm 15:53 Sunny 80 26.7 36 2.2 20 20 WNW 9 15 29.97 1015 10 16 0.00 0.00
4:53 pm 16:53 Sunny 80 26.7 35 1.7 20 20 VRB 6 9 29.96 1015 10 16 0.00 0.00
5:53 pm 17:53 Sunny 81 27.2 34 1.1 18 18 WSW 10 17 29.95 1014 10 16 0.00 0.00
6:53 pm 18:53 Sunny 80 26.7 32 0 17 17 SW 9 15 29.95 1014 10 16 0.00 0.00
7:53 pm 19:53 Sunny 75 23.9 37 2.8 25 25 S 7 11 29.97 1015 10 16 0.00 0.00
8:53 pm 20:53 Clear 70 21.1 36 2.2 29 29 SSE 8 13 29.98 1015 10 16 0.00 0.00
9:53 pm 21:53 Clear 69 20.6 46 7.8 44 44 S 10 17 29.99 1016 10 16 0.00 0.00
10:53 pm 22:53 Clear 66 18.9 45 7.2 47 47 S 10 17 30.01 1016 10 16 0.00 0.00
11:53 pm 23:53 Clear 63 17.2 44 6.7 50 50 SSE 10 17 30.03 1017 10 16 0.00 0.00

Powered by AerisWeather